When you browse on this site, cookies collect data to enhance your experience and personalize the content and advertising you see.
Visit our Privacy Policy to learn more. By continuing to use the site, you agree to this use of cookies and data.
  • In Latvia
  • List of Countries
  • For 7 days
  • Water Temperature
  • Satellite Maps
  • Weather Map
  • Weather Widgets
  • user-avatar
    Login

    Hourly Weather Hobart

    Today, 21 January, Monday

    Time Temperature Precipitation Wind Pressure Humidity
    00:00 +15°C° 0 mm 1 mps 750 mmHg 85%
    01:00 +15°C° 0 mm 1 mps 749 mmHg 87%
    02:00 +15°C° 0 mm 1 mps 749 mmHg 89%
    03:00 +14°C° 0 mm 1 mps 749 mmHg 91%
    04:00 +14°C° 0 mm 1 mps 748 mmHg 94%
    05:00 +15°C° 0 mm 1 mps 748 mmHg 88%
    06:00 +16°C° 0 mm 1 mps 748 mmHg 82%
    07:00 +19°C° 0 mm 1 mps 748 mmHg 76%
    08:00 +21°C° 0 mm 1 mps 748 mmHg 64%
    09:00 +24°C° 0 mm 1 mps 748 mmHg 51%
    10:00 +27°C° 0 mm 1 mps 748 mmHg 39%
    11:00 +29°C° 0 mm 2 mps 748 mmHg 34%
    12:00 +30°C° 0 mm 2 mps 747 mmHg 28%
    13:00 +33°C° 0 mm 3 mps 747 mmHg 22%
    14:00 +31°C° 0 mm 3 mps 747 mmHg 25%
    15:00 +31°C° 0 mm 3 mps 746 mmHg 27%
    16:00 +30°C° 0 mm 3 mps 746 mmHg 29%
    17:00 +28°C° 0 mm 3 mps 746 mmHg 38%
    18:00 +26°C° 0 mm 2 mps 746 mmHg 46%
    19:00 +23°C° 0 mm 2 mps 746 mmHg 54%
    20:00 +20°C° 0 mm 2 mps 746 mmHg 62%
    21:00 +19°C° 0 mm 1 mps 746 mmHg 69%
    22:00 +16°C° 0 mm 1 mps 746 mmHg 76%
    23:00 +15°C° 0 mm 1 mps 746 mmHg 75%

    Tomorrow, 22 January, Tuesday

    Time Temperature Precipitation Wind Pressure Humidity
    00:00 +15°C° 0 mm 1 mps 746 mmHg 74%
    01:00 +14°C° 0 mm 1 mps 746 mmHg 73%
    02:00 +14°C° 0 mm 1 mps 745 mmHg 71%
    03:00 +13°C° 0 mm 1 mps 745 mmHg 70%
    04:00 +13°C° 0 mm 1 mps 745 mmHg 68%
    05:00 +15°C° 0 mm 1 mps 745 mmHg 62%
    06:00 +16°C° 0 mm 1 mps 745 mmHg 56%
    07:00 +19°C° 0 mm 1 mps 745 mmHg 51%
    08:00 +22°C° 0 mm 1 mps 745 mmHg 44%
    09:00 +25°C° 0 mm 2 mps 745 mmHg 38%
    10:00 +28°C° 0 mm 2 mps 745 mmHg 32%
    11:00 +30°C° 0 mm 2 mps 744 mmHg 29%
    12:00 +31°C° 0 mm 3 mps 744 mmHg 25%
    13:00 +34°C° 0 mm 3 mps 743 mmHg 22%
    14:00 +34°C° 0 mm 3 mps 743 mmHg 23%
    15:00 +33°C° 0 mm 3 mps 743 mmHg 24%
    16:00 +33°C° 0 mm 3 mps 743 mmHg 25%
    17:00 +30°C° 0 mm 2 mps 742 mmHg 31%
    18:00 +28°C° 0 mm 2 mps 742 mmHg 37%
    19:00 +26°C° 0 mm 1 mps 742 mmHg 43%
    20:00 +23°C° 0 mm 1 mps 742 mmHg 51%
    21:00 +21°C° 0 mm 1 mps 743 mmHg 59%
    22:00 +19°C° 0 mm 1 mps 743 mmHg 67%
    23:00 +18°C° 0.1 mm 2 mps 743 mmHg 72%

    Day after tomorrow, 23 January, Wednesday

    Time Temperature Precipitation Wind Pressure Humidity
    00:00 +18°C° 0.1 mm 2 mps 744 mmHg 76%
    01:00 +17°C° 0.1 mm 3 mps 744 mmHg 80%
    02:00 +15°C° 0.1 mm 4 mps 745 mmHg 81%
    03:00 +13°C° 0.1 mm 4 mps 745 mmHg 83%
    04:00 +12°C° 0.1 mm 5 mps 746 mmHg 84%
    05:00 +12°C° 0 mm 5 mps 747 mmHg 79%
    06:00 +12°C° 0 mm 5 mps 747 mmHg 73%
    07:00 +11°C° 0 mm 4 mps 748 mmHg 68%
    08:00 +13°C° 0 mm 4 mps 749 mmHg 60%
    09:00 +14°C° 0 mm 4 mps 749 mmHg 52%
    10:00 +16°C° 0 mm 3 mps 749 mmHg 44%
    11:00 +17°C° 0 mm 3 mps 750 mmHg 41%
    12:00 +18°C° 0 mm 3 mps 750 mmHg 38%
    13:00 +19°C° 0 mm 4 mps 750 mmHg 34%
    14:00 +19°C° 0 mm 4 mps 750 mmHg 37%
    15:00 +18°C° 0 mm 4 mps 750 mmHg 40%
    16:00 +17°C° 0 mm 4 mps 750 mmHg 43%
    17:00 +15°C° 0 mm 4 mps 750 mmHg 48%
    18:00 +14°C° 0 mm 3 mps 751 mmHg 53%
    19:00 +13°C° 0 mm 2 mps 751 mmHg 59%
    20:00 +12°C° 0 mm 2 mps 752 mmHg 63%
    21:00 +12°C° 0 mm 1 mps 752 mmHg 67%
    22:00 +11°C° 0 mm 1 mps 752 mmHg 72%
    23:00 +11°C° 0 mm 1 mps 752 mmHg 72%

    24 January, Thursday

    Time Temperature Precipitation Wind Pressure Humidity
    00:00 +11°C° 0 mm 1 mps 752 mmHg 72%
    01:00 +10°C° 0 mm 2 mps 752 mmHg 72%
    02:00 +11°C° 0 mm 1 mps 752 mmHg 73%
    03:00 +11°C° 0 mm 1 mps 752 mmHg 74%
    04:00 +11°C° 0 mm 1 mps 752 mmHg 76%
    05:00 +12°C° 0 mm 2 mps 751 mmHg 73%
    06:00 +13°C° 0 mm 2 mps 751 mmHg 70%
    07:00 +14°C° 0 mm 2 mps 751 mmHg 67%
    08:00 +16°C° 0 mm 2 mps 751 mmHg 59%
    09:00 +18°C° 0 mm 2 mps 751 mmHg 52%
    10:00 +20°C° 0 mm 3 mps 750 mmHg 45%
    11:00 +22°C° 0 mm 3 mps 750 mmHg 42%
    12:00 +23°C° 0 mm 4 mps 749 mmHg 39%
    13:00 +26°C° 0 mm 5 mps 749 mmHg 36%
    14:00 +27°C° 0 mm 5 mps 748 mmHg 35%
    15:00 +27°C° 0 mm 5 mps 748 mmHg 34%
    16:00 +28°C° 0 mm 5 mps 747 mmHg 34%
    17:00 +27°C° 0 mm 5 mps 747 mmHg 38%
    18:00 +25°C° 0 mm 5 mps 746 mmHg 42%
    19:00 +23°C° 0 mm 5 mps 746 mmHg 47%
    20:00 +21°C° 0 mm 5 mps 745 mmHg 52%
    21:00 +20°C° 0 mm 5 mps 745 mmHg 57%
    22:00 +18°C° 0 mm 4 mps 744 mmHg 62%
    23:00 +19°C° 0 mm 4 mps 743 mmHg 61%

    25 January, Friday

    Time Temperature Precipitation Wind Pressure Humidity
    00:00 +19°C° 0 mm 4 mps 742 mmHg 60%
    01:00 +19°C° 0 mm 5 mps 741 mmHg 59%
    02:00 +20°C° 0 mm 4 mps 741 mmHg 56%
    03:00 +20°C° 0 mm 4 mps 740 mmHg 54%
    04:00 +21°C° 0 mm 4 mps 739 mmHg 51%
    05:00 +23°C° 0 mm 4 mps 739 mmHg 48%
    06:00 +26°C° 0 mm 4 mps 738 mmHg 44%
    07:00 +29°C° 0 mm 4 mps 738 mmHg 41%
    08:00 +33°C° 0 mm 5 mps 738 mmHg 35%
    09:00 +36°C° 0 mm 6 mps 737 mmHg 29%
    10:00 +40°C° 0 mm 7 mps 737 mmHg 24%
    11:00 +40°C° 0 mm 7 mps 736 mmHg 24%
    12:00 +41°C° 0 mm 7 mps 736 mmHg 24%
    13:00 +41°C° 0 mm 7 mps 735 mmHg 24%
    14:00 +41°C° 0 mm 6 mps 735 mmHg 23%
    15:00 +40°C° 0 mm 6 mps 735 mmHg 23%
    16:00 +39°C° 0 mm 5 mps 735 mmHg 22%
    17:00 +35°C° 0 mm 4 mps 735 mmHg 27%
    18:00 +31°C° 0 mm 3 mps 736 mmHg 31%
    19:00 +28°C° 0 mm 2 mps 736 mmHg 35%
    20:00 +26°C° 0 mm 3 mps 736 mmHg 45%
    21:00 +23°C° 0 mm 4 mps 737 mmHg 56%
    22:00 +20°C° 0 mm 4 mps 738 mmHg 67%
    23:00 +20°C° 0 mm 5 mps 738 mmHg 68%

    26 January, Saturday

    Time Temperature Precipitation Wind Pressure Humidity
    00:00 +19°C° 0 mm 5 mps 738 mmHg 70%
    01:00 +17°C° 0 mm 5 mps 739 mmHg 72%
    02:00 +17°C° 0 mm 4 mps 739 mmHg 71%
    03:00 +16°C° 0 mm 3 mps 740 mmHg 70%
    04:00 +16°C° 0 mm 3 mps 740 mmHg 69%
    05:00 +16°C° 0 mm 3 mps 741 mmHg 67%
    06:00 +17°C° 0 mm 2 mps 742 mmHg 64%
    07:00 +17°C° 0 mm 2 mps 743 mmHg 62%
    08:00 +19°C° 0 mm 2 mps 743 mmHg 55%
    09:00 +22°C° 0 mm 1 mps 743 mmHg 48%
    10:00 +24°C° 0 mm 1 mps 743 mmHg 41%
    11:00 +26°C° 0 mm 2 mps 743 mmHg 37%
    12:00 +28°C° 0 mm 2 mps 743 mmHg 33%
    13:00 +30°C° 0 mm 2 mps 742 mmHg 29%
    14:00 +28°C° 0 mm 3 mps 742 mmHg 36%
    15:00 +26°C° 0 mm 4 mps 742 mmHg 43%
    16:00 +23°C° 0 mm 4 mps 741 mmHg 49%
    17:00 +20°C° 0 mm 4 mps 741 mmHg 60%
    18:00 +18°C° 0 mm 3 mps 741 mmHg 71%
    19:00 +16°C° 0 mm 2 mps 741 mmHg 82%
    20:00 +16°C° 0 mm 1 mps 741 mmHg 85%
    21:00 +16°C° 0 mm 1 mps 741 mmHg 88%
    22:00 +15°C° 0 mm 1 mps 741 mmHg 91%
    23:00 +15°C° 0 mm 1 mps 741 mmHg 91%
    Show more